DateTimeUTC,F1_A11,F1_S11,BsB_S11,BsG_S11,BsR_S11,BbsB_S11,BbsG_S11,BbsR_S11,BaB_A11,BaG_A11,BaR_A11,T_S11,U_S11,P_S11,T1_A11
2020-04-14T00:00:00Z,00000388,21000608,,,,,,,,,,23.5,00.0,0633.5,30.8
2020-04-14T00:01:00Z,00000388,21000608,,,,,,,,,,23.5,00.0,0633.5,30.8
2020-04-14T00:02:00Z,00000388,21000608,,,,,,,,,,23.5,00.0,0633.5,30.8
2020-04-14T00:03:00Z,00000388,61000608,,,,,,,,,,23.5,00.0,0633.5,30.8
2020-04-14T00:04:00Z,00000388,41000608,0002.08,0001.06,0000.53,-000.49,-000.02,0000.16,0000.09,0000.07,-000.04,23.4,00.0,0634.4,30.8
2020-04-14T00:05:00Z,00000388,01000608,0002.89,0001.09,0000.58,0000.59,0000.31,0000.15,0000.12,0000.22,0000.11,23.3,00.0,0634.5,30.8
2020-04-14T00:06:00Z,00000388,01000608,0001.75,0001.49,0000.75,0000.36,0000.39,-000.12,0000.20,0000.05,0000.10,23.3,00.0,0634.5,30.8
2020-04-14T00:07:00Z,00000388,01000608,0002.65,0000.80,0000.43,0000.48,-000.12,-000.13,0000.08,0000.21,0000.05,23.3,00.0,0634.5,30.8
2020-04-14T00:08:00Z,00000388,01000608,0003.14,0001.14,0000.96,0000.18,0000.01,-000.26,0000.18,0000.05,0000.17,23.3,00.0,0634.5,30.8
2020-04-14T00:09:00Z,00000388,01000608,0001.93,0000.80,0000.75,0001.15,0000.11,-000.06,0000.12,0000.04,0000.11,23.3,00.0,0634.5,30.8
2020-04-14T00:10:00Z,00000388,01000608,0001.77,0001.12,0000.59,0000.67,-000.09,0000.24,0000.11,0000.05,0000.09,23.2,00.0,0634.6,30.8
2020-04-14T00:11:00Z,00000388,01000608,0002.03,0001.28,0000.49,0000.85,0000.09,-000.44,-000.01,0000.28,-000.01,23.2,00.1,0634.5,30.8
2020-04-14T00:12:00Z,00000388,01000608,0002.01,0001.42,0001.10,0000.54,0000.21,-000.00,0000.11,-000.01,0000.09,23.2,00.0,0634.6,30.8
2020-04-14T00:13:00Z,00000388,01000608,0002.31,0001.44,0000.92,0000.11,0000.01,0000.60,0000.28,-000.00,0000.03,23.2,00.0,0634.6,30.8
2020-04-14T00:14:00Z,00000388,01000608,0002.78,0001.07,0000.81,0000.07,0000.30,-000.09,-000.04,0000.20,0000.05,23.3,00.0,0634.6,30.8
2020-04-14T00:15:00Z,00000388,01000608,0002.78,0001.62,0000.79,0000.07,0000.09,-000.38,0000.11,0000.03,0000.12,23.2,00.0,0634.6,30.8
2020-04-14T00:16:00Z,00000388,01000608,0001.13,0001.47,0000.30,-000.02,0000.12,0000.01,0000.19,0000.23,0000.18,23.2,00.0,0634.6,30.8
2020-04-14T00:17:00Z,00000388,01000608,0001.69,0001.36,0000.92,0001.21,-000.06,-000.17,-000.04,-000.02,-000.06,23.2,00.1,0634.6,30.8
2020-04-14T00:18:00Z,00000388,01000608,0001.98,0000.85,0000.28,0000.20,-000.38,-000.17,0000.15,0000.09,0000.16,23.2,00.0,0634.5,30.8
2020-04-14T00:19:00Z,00000388,01000608,0002.90,0001.41,0000.62,0001.22,0000.42,-000.15,0000.16,0000.26,0000.03,23.2,00.1,0634.5,30.8
2020-04-14T00:20:00Z,00000388,01000608,0002.08,0001.91,0000.91,0000.89,-000.03,-000.03,0000.17,0000.03,0000.11,23.2,00.0,0634.5,30.8
2020-04-14T00:21:00Z,00000388,01000608,0001.72,0000.77,0000.61,0000.02,-000.45,-000.28,0000.17,0000.12,0000.13,23.2,00.1,0634.5,30.8
2020-04-14T00:22:00Z,00000388,01000608,0002.20,0000.98,0000.81,-000.20,-000.09,-000.11,-000.07,0000.06,-000.03,23.2,00.0,0634.5,30.8
2020-04-14T00:23:00Z,00000388,01000608,0002.35,0000.84,0000.92,0000.89,0000.03,-000.65,0000.23,0000.23,0000.22,23.2,00.1,0634.5,30.8
2020-04-14T00:24:00Z,00000388,01000608,0002.68,0001.12,0000.30,0000.26,-000.03,-000.28,0000.09,0000.06,0000.06,23.2,00.1,0634.5,30.8
2020-04-14T00:25:00Z,00000388,01000608,0001.02,0000.87,0000.05,0000.09,-000.16,-000.14,0000.19,0000.18,0000.07,23.2,00.0,0634.5,30.8
2020-04-14T00:26:00Z,00000388,01000608,0001.12,0001.22,0000.70,0000.01,0000.23,-000.41,0000.21,0000.07,0000.05,23.2,00.1,0634.5,30.8
2020-04-14T00:27:00Z,00000388,01000608,0001.79,0000.92,0000.27,0000.37,0000.42,-000.10,-000.01,0000.12,0000.08,23.2,00.1,0634.5,30.8
2020-04-14T00:28:00Z,00000388,01000608,0001.23,0000.77,0000.50,0000.04,-000.02,0000.37,0000.23,0000.06,0000.12,23.2,00.0,0634.5,30.8
2020-04-14T00:29:00Z,00000388,01000608,0000.83,0001.42,0000.66,0000.21,0000.11,0000.43,-000.07,0000.03,-000.04,23.2,00.0,0634.5,30.8
2020-04-14T00:30:00Z,00000388,01000608,0001.37,0001.17,0000.85,0000.25,0000.06,-000.44,0000.30,0000.14,0000.25,23.2,00.0,0634.5,30.8
2020-04-14T00:31:00Z,00000388,01000608,0002.16,0001.45,0001.20,0000.95,0000.30,-000.13,0000.03,0000.28,0000.09,23.2,00.1,0634.5,30.8
2020-04-14T00:32:00Z,00000388,01000608,0002.41,0001.02,0000.81,0001.05,0000.20,-000.04,0000.18,0000.04,0000.06,23.2,00.1,0634.5,30.8
2020-04-14T00:33:00Z,00000388,01000608,0002.64,0001.52,0000.58,-000.11,0000.05,0000.23,-000.07,0000.09,0000.01,23.2,00.1,0634.5,30.8
2020-04-14T00:34:00Z,00000388,01000608,0001.98,0001.09,0000.68,0000.66,0000.07,0000.00,0000.14,-000.01,-000.08,23.2,00.1,0634.5,30.8
2020-04-14T00:35:00Z,00000388,01000608,0001.76,0001.67,0000.46,-000.50,-000.22,-000.30,0000.13,0000.08,0000.16,23.2,00.1,0634.5,30.8
2020-04-14T00:36:00Z,00000388,01000608,0002.16,0001.13,0000.85,0000.84,-000.09,-000.08,0000.18,0000.25,0000.09,23.2,00.1,0634.5,30.8
2020-04-14T00:37:00Z,00000388,01000608,0001.37,0001.18,0000.82,0000.75,0000.22,-000.24,0000.00,-000.01,0000.10,23.2,00.0,0634.5,30.8
2020-04-14T00:38:00Z,00000388,01000608,0000.87,0001.05,0000.94,-000.46,0000.04,-000.01,0000.18,0000.09,-000.02,23.2,00.0,0634.5,30.8
2020-04-14T00:39:00Z,00000388,01000608,0001.80,0000.88,0000.73,0000.26,-000.07,-000.27,0000.09,0000.11,0000.09,23.2,00.1,0634.6,30.8
2020-04-14T00:40:00Z,00000388,01000608,0002.49,0001.46,0001.17,0000.12,-000.01,0000.13,0000.06,0000.02,0000.17,23.1,00.0,0634.5,30.8
2020-04-14T00:41:00Z,00000388,01000608,0001.39,0001.11,0000.83,0000.83,-000.55,-000.06,0000.17,0000.12,-000.14,23.1,00.0,0634.5,30.8
2020-04-14T00:42:00Z,00000388,01000608,0001.94,0000.87,0000.61,0000.23,0000.16,-000.14,0000.06,0000.08,0000.10,23.1,00.0,0634.6,30.8
2020-04-14T00:43:00Z,00000388,01000608,0001.53,0001.45,0000.32,0000.50,-000.03,-000.22,0000.11,0000.19,0000.15,23.1,00.0,0634.6,30.8
2020-04-14T00:44:00Z,00000388,01000608,0002.21,0001.48,-000.10,0000.96,-000.02,-000.62,0000.15,-000.01,0000.14,23.1,00.0,0634.6,30.8
2020-04-14T00:45:00Z,00000388,01000608,0001.43,0001.07,0000.87,-000.25,0000.05,-000.36,0000.03,0000.26,-000.02,23.1,00.0,0634.6,30.8
2020-04-14T00:46:00Z,00000388,01000608,0001.84,0001.23,0000.57,0000.92,0000.22,-000.06,0000.14,-000.11,0000.11,23.1,00.0,0634.6,30.8
2020-04-14T00:47:00Z,00000388,01000608,0001.37,0001.13,0001.13,0000.77,0000.21,0000.29,0000.11,0000.14,0000.17,23.1,00.0,0634.6,30.8
2020-04-14T00:48:00Z,00000388,01000608,0000.86,0000.62,0000.49,0000.16,0000.22,0000.45,0000.18,0000.27,-000.09,23.1,00.0,0634.6,30.8
2020-04-14T00:49:00Z,00000388,01000608,0001.76,0001.38,0000.73,0000.04,0000.02,-000.32,0000.00,-000.03,0000.12,23.1,00.0,0634.6,30.8
2020-04-14T00:50:00Z,00000388,01000608,0002.67,0001.25,0000.90,0001.05,-000.48,0000.59,0000.10,0000.22,0000.03,23.1,00.0,0634.6,30.8
2020-04-14T00:51:00Z,00000388,01000608,0002.46,0000.78,0000.61,0001.16,0000.17,-000.17,0000.14,-000.05,0000.14,23.1,00.0,0634.6,30.8
2020-04-14T00:52:00Z,00000388,01000608,0000.97,0001.07,0000.33,0000.62,0000.28,0000.07,-000.14,-000.05,0000.03,23.1,00.0,0634.6,30.8
2020-04-14T00:53:00Z,00000388,01000608,0003.60,0001.17,0000.83,0000.83,0000.09,-000.09,0000.24,0000.23,0000.05,23.0,00.0,0634.6,30.8
2020-04-14T00:54:00Z,00000388,01000608,0001.74,0001.16,0000.49,0000.40,0000.35,0000.17,0000.04,0000.16,0000.01,23.0,00.0,0634.6,30.8
2020-04-14T00:55:00Z,00000388,01000608,0001.10,0000.49,0000.58,-000.62,0000.34,0000.02,0000.08,-000.09,0000.14,23.0,00.0,0634.6,30.8
2020-04-14T00:56:00Z,00000388,01000608,0002.14,0001.17,0000.37,0000.11,0000.17,-000.05,0000.13,0000.01,0000.03,23.0,00.1,0634.6,30.8
2020-04-14T00:57:00Z,00000388,41000608,,,,,,,,,,23.1,00.0,0634.6,30.8
2020-04-14T00:58:00Z,00000388,61000608,,,,,,,,,,23.2,00.0,0633.7,30.8
2020-04-14T00:59:00Z,00000388,21000608,,,,,,,,,,23.3,00.0,0633.6,30.8
2020-04-14T01:00:00Z,00000388,21000608,,,,,,,,,,23.3,00.0,0633.6,30.8
2020-04-14T01:01:00Z,00000388,21000608,,,,,,,,,,23.3,00.0,0633.6,30.8
2020-04-14T01:02:00Z,00000388,21000608,,,,,,,,,,23.3,00.0,0633.6,30.8
2020-04-14T01:03:00Z,00000388,61000608,,,,,,,,,,23.3,00.0,0633.6,30.8
2020-04-14T01:04:00Z,00000388,41000608,0001.11,0001.25,0000.38,0001.03,-000.06,0000.36,0000.08,0000.03,0000.05,23.1,00.0,0634.5,30.8
2020-04-14T01:05:00Z,00000388,01000608,0001.51,0001.41,0000.36,0000.13,0000.00,-000.12,0000.08,0000.02,-000.04,23.1,00.0,0634.6,30.8
2020-04-14T01:06:00Z,00000388,01000608,0000.56,0000.49,0000.35,0000.41,0000.38,0000.31,0000.08,-000.01,0000.09,23.1,00.0,0634.6,30.8
2020-04-14T01:07:00Z,00000388,01000608,0002.47,0000.83,0000.63,0000.89,0000.27,0000.16,0000.11,0000.15,0000.13,23.1,00.0,0634.6,30.8
2020-04-14T01:08:00Z,00000388,01000608,0000.78,0001.54,0000.50,-000.21,0000.20,0000.27,0000.03,0000.19,0000.07,23.1,00.0,0634.6,30.8
2020-04-14T01:09:00Z,00000388,01000608,0000.71,0000.92,0000.68,0000.52,-000.07,0000.25,0000.04,0000.11,0000.11,23.1,00.0,0634.5,30.8
2020-04-14T01:10:00Z,00000388,01000608,0000.61,0001.28,0000.54,0000.33,0000.18,0000.39,0000.21,0000.00,0000.09,23.1,00.0,0634.5,30.8
2020-04-14T01:11:00Z,00000388,01000608,0000.66,0001.66,0000.60,0000.42,0000.20,0000.12,0000.03,-000.14,-000.18,23.1,00.1,0634.5,30.8
2020-04-14T01:12:00Z,00000388,01000608,0001.32,0001.28,0001.11,0000.81,0000.26,0000.33,0000.13,0000.34,0000.17,23.1,00.1,0634.5,30.8
2020-04-14T01:13:00Z,00000388,01000608,0001.13,0000.53,0000.33,-000.20,-000.02,0000.42,0000.09,-000.00,0000.12,23.1,00.1,0634.5,30.8
2020-04-14T01:14:00Z,00000388,01000608,0002.07,0000.41,0000.61,-000.41,-000.11,0000.30,0000.10,0000.07,0000.06,23.1,00.0,0634.5,30.8
2020-04-14T01:15:00Z,00000388,01000608,0002.58,0001.10,0000.83,0000.97,-000.18,0000.27,0000.03,0000.13,0000.09,23.1,00.0,0634.5,30.8
2020-04-14T01:16:00Z,00000388,01000608,0001.54,0000.55,0000.19,0000.73,-000.08,0000.31,0000.11,-000.01,-000.03,23.1,00.0,0634.5,30.8
2020-04-14T01:17:00Z,00000388,01000608,0001.87,0000.84,0001.04,0000.62,-000.12,0000.23,0000.13,0000.13,0000.03,23.1,00.0,0634.5,30.8
2020-04-14T01:18:00Z,00000388,01000608,0001.36,0000.83,0001.10,0000.52,-000.15,0000.22,0000.01,0000.17,0000.14,23.1,00.1,0634.5,30.8
2020-04-14T01:19:00Z,00000388,01000608,0001.29,0000.92,0000.17,0000.57,0000.23,0000.04,0000.21,0000.02,0000.00,23.1,00.0,0634.6,30.8
2020-04-14T01:20:00Z,00000388,01000608,0001.95,0001.11,0000.66,0001.13,0000.27,0000.49,0000.07,0000.09,0000.15,23.1,00.1,0634.6,30.8
2020-04-14T01:21:00Z,00000388,01000608,0001.02,0000.40,0000.56,0001.12,0000.23,0000.04,0000.01,0000.10,0000.11,23.1,00.1,0634.6,30.8
2020-04-14T01:22:00Z,00000388,01000608,0002.43,0001.47,0000.53,0000.46,0000.31,0000.01,0000.01,0000.12,0000.01,23.1,00.1,0634.6,30.8
2020-04-14T01:23:00Z,00000388,01000608,0000.98,0001.28,0000.92,0000.32,-000.20,0000.20,0000.14,0000.16,0000.10,23.1,00.1,0634.6,30.8
2020-04-14T01:24:00Z,00000388,01000608,0000.72,0001.05,0000.33,-000.30,-000.09,-000.09,0000.11,-000.05,0000.01,23.1,00.1,0634.6,30.8
2020-04-14T01:25:00Z,00000388,01000608,0001.33,0001.52,0000.06,0000.55,0000.04,-000.02,0000.12,0000.00,0000.11,23.1,00.1,0634.6,30.8
2020-04-14T01:26:00Z,00000388,01000608,0001.37,0000.62,0000.28,-000.54,0000.26,0000.00,-000.06,0000.00,-000.08,23.1,00.1,0634.6,30.8
2020-04-14T01:27:00Z,00000388,01000608,0000.74,0001.75,0000.20,0000.70,0000.54,0000.15,0000.07,0000.12,0000.05,23.1,00.1,0634.5,30.8
2020-04-14T01:28:00Z,00000388,01000608,0001.53,0001.24,0000.85,0000.79,0000.15,0000.66,0000.11,0000.07,0000.11,23.1,00.1,0634.6,30.8
2020-04-14T01:29:00Z,00000388,01000608,0001.15,0000.58,0000.68,0000.31,0000.03,0000.24,0000.10,0000.12,0000.07,23.1,00.1,0634.6,30.8
2020-04-14T01:30:00Z,00000388,01000608,0002.79,0000.19,0000.79,0000.67,-000.11,0000.20,0000.05,-000.04,-000.00,23.1,00.1,0634.5,30.8
2020-04-14T01:31:00Z,00000388,01000608,0000.33,0000.68,0000.51,0000.69,0000.15,0000.60,-000.04,0000.12,0000.08,23.1,00.1,0634.5,30.8
2020-04-14T01:32:00Z,00000388,01000608,0000.84,0000.98,0000.72,0000.93,-000.04,0000.27,0000.11,0000.04,0000.03,23.1,00.1,0634.5,30.8
2020-04-14T01:33:00Z,00000388,01000608,0001.31,0000.50,0000.14,0000.42,-000.21,-000.21,0000.05,0000.09,0000.05,23.1,00.1,0634.6,30.8
2020-04-14T01:34:00Z,00000388,01000608,0000.56,0001.22,0000.12,0000.76,0000.32,0000.09,0000.17,0000.09,0000.04,23.1,00.1,0634.6,30.8
2020-04-14T01:35:00Z,00000388,01000608,0000.35,0001.06,0000.13,-000.08,-000.11,0000.03,0000.00,0000.19,0000.10,23.1,00.1,0634.6,30.8
2020-04-14T01:36:00Z,00000388,01000608,0000.84,0001.20,0000.60,-000.94,0000.02,0000.39,0000.00,-000.07,0000.01,23.1,00.2,0634.6,30.8
2020-04-14T01:37:00Z,00000388,01000608,0000.72,0000.85,0000.30,0000.25,0000.16,0000.08,0000.07,-000.08,-000.01,23.1,00.1,0634.6,30.8
2020-04-14T01:38:00Z,00000388,01000608,0000.84,0000.74,0000.55,0000.23,0000.39,-000.23,0000.02,-000.01,0000.09,23.1,00.2,0634.6,30.8
2020-04-14T01:39:00Z,00000388,01000608,0001.35,0000.76,0000.61,0000.32,0000.03,0000.25,0000.09,0000.08,-000.00,23.1,00.2,0634.6,30.8
2020-04-14T01:40:00Z,00000388,01000608,0001.83,0000.60,0000.04,0000.37,0000.13,0000.29,0000.04,0000.12,0000.03,23.1,00.1,0634.6,30.8
2020-04-14T01:41:00Z,00000388,01000608,0000.68,0000.38,0000.05,0001.06,0000.15,0000.36,0000.02,0000.03,-000.01,23.1,00.1,0634.6,30.8
2020-04-14T01:42:00Z,00000388,01000608,0001.48,0000.78,-000.05,0000.89,0000.08,0000.20,0000.22,0000.10,0000.04,23.1,00.1,0634.6,30.8
2020-04-14T01:43:00Z,00000388,01000608,-000.29,0000.87,0000.17,0000.72,-000.20,0000.13,-000.03,0000.05,0000.04,23.1,00.1,0634.6,30.8
2020-04-14T01:44:00Z,00000388,01000608,0000.42,0000.29,0000.42,0000.31,-000.12,0000.38,-000.07,-000.06,-000.06,23.0,00.1,0634.6,30.8
2020-04-14T01:45:00Z,00000388,01000608,0001.05,0000.97,0000.31,0000.30,0000.75,0000.30,0000.06,0000.07,0000.04,23.0,00.1,0634.6,30.8
2020-04-14T01:46:00Z,00000388,01000608,0000.46,0001.28,0000.15,0000.41,0000.05,0000.25,0000.04,0000.04,0000.11,23.0,00.1,0634.5,30.8
2020-04-14T01:47:00Z,00000388,01000608,0001.18,0001.07,0000.52,0000.35,0000.26,0000.61,0000.12,-000.03,0000.10,23.0,00.1,0634.5,30.8
2020-04-14T01:48:00Z,00000388,01000608,0000.80,0000.34,0000.21,-000.27,0000.08,0000.11,0000.10,0000.23,-000.04,23.0,00.1,0634.6,30.8
2020-04-14T01:49:00Z,00000388,01000608,0000.69,0000.50,0000.78,0000.59,0000.01,0000.26,0000.10,-000.06,0000.04,23.0,00.1,0634.6,30.8
2020-04-14T01:50:00Z,00000388,01000608,0000.54,-000.03,-000.00,-000.34,-000.14,-000.02,-000.18,-000.08,0000.05,23.0,00.1,0634.6,30.8
2020-04-14T01:51:00Z,00000388,01000608,0001.10,0000.61,0000.36,0000.29,0000.09,0000.21,0000.13,0000.10,0000.06,23.0,00.1,0634.7,30.8
2020-04-14T01:52:00Z,00000388,01000608,0001.82,0000.49,-000.33,-000.63,0000.21,-000.01,-000.05,0000.06,-000.07,23.0,00.1,0634.7,30.8
2020-04-14T01:53:00Z,00000388,01000608,0000.76,0000.27,-000.10,-000.01,-000.30,-000.03,0000.06,0000.06,0000.02,23.0,00.1,0634.6,30.8
2020-04-14T01:54:00Z,00000388,01000608,0000.12,-000.20,0000.23,-000.71,-000.17,0000.23,0000.09,-000.01,0000.10,23.0,00.1,0634.6,30.8
2020-04-14T01:55:00Z,00000388,01000608,0000.24,0000.45,-000.04,-000.01,-000.14,0000.18,-000.03,0000.03,-000.01,23.0,00.1,0634.6,30.8
2020-04-14T01:56:00Z,00000388,01000608,0000.79,0000.67,0000.28,0000.76,0000.17,0000.27,-000.03,-000.03,0000.04,23.0,00.1,0634.6,30.8
2020-04-14T01:57:00Z,00000388,41000608,,,,,,,,,,23.0,00.0,0634.6,30.8
2020-04-14T01:58:00Z,00000388,61000608,,,,,,,,,,23.1,00.0,0633.7,30.8
2020-04-14T01:59:00Z,00000388,21000608,,,,,,,,,,23.2,00.0,0633.6,30.8
2020-04-14T02:00:00Z,00000388,21000608,,,,,,,,,,23.2,00.0,0633.6,30.8
2020-04-14T02:01:00Z,00000388,21000608,,,,,,,,,,23.2,00.0,0633.6,30.8
2020-04-14T02:02:00Z,00000388,21000608,,,,,,,,,,23.2,00.0,0633.7,30.8
2020-04-14T02:03:00Z,00000388,61000608,,,,,,,,,,23.2,00.0,0633.7,30.8
2020-04-14T02:04:00Z,00000388,41000608,0000.64,-000.16,0000.09,0000.61,0000.10,-000.33,-000.13,-000.12,-000.05,23.0,00.1,0634.6,30.8
2020-04-14T02:05:00Z,00000388,01000608,0000.01,-000.26,-000.45,-000.05,0000.34,-000.13,0000.03,0000.08,0000.04,23.0,00.1,0634.6,30.8
2020-04-14T02:06:00Z,00000388,01000608,-000.79,0000.16,-000.17,0000.34,0000.10,-000.08,0000.07,0000.06,0000.11,23.0,00.1,0634.6,30.8
2020-04-14T02:07:00Z,00000388,01000608,0000.63,0000.34,0000.13,0000.25,-000.09,-000.02,0000.11,-000.03,-000.06,23.0,00.1,0634.6,30.8
2020-04-14T02:08:00Z,00000388,01000608,0001.57,-000.37,0000.36,0001.13,-000.54,-000.04,-000.13,0000.07,0000.04,22.9,00.1,0634.6,30.8
2020-04-14T02:09:00Z,00000388,01000608,0000.52,0000.15,0000.25,0000.06,-000.53,-000.10,0000.13,0000.10,0000.09,22.9,00.1,0634.6,30.8
2020-04-14T02:10:00Z,00000388,01000608,0000.51,-000.18,-000.00,0000.50,0000.04,-000.02,-000.01,-000.07,-000.01,22.9,00.1,0634.7,30.8
2020-04-14T02:11:00Z,00000388,01000608,0000.52,0000.35,0000.11,0000.73,0000.16,-000.44,0000.01,0000.01,0000.02,22.9,00.1,0634.7,30.8
2020-04-14T02:12:00Z,00000388,01000608,0000.34,0000.57,-000.14,0000.24,-000.15,-000.73,0000.06,0000.05,-000.03,22.9,00.1,0634.6,30.8
2020-04-14T02:13:00Z,00000388,01000608,0000.03,-000.46,0000.59,0000.49,-000.18,-000.05,0000.07,0000.13,-000.01,22.9,00.1,0634.7,30.8
2020-04-14T02:14:00Z,00000388,01000608,-000.37,0000.52,0000.09,0000.96,-000.17,-000.27,-000.18,-000.06,-000.01,22.9,00.2,0634.7,30.8
2020-04-14T02:15:00Z,00000388,01000608,-000.88,-000.45,-000.17,0000.48,-000.57,-000.32,0000.14,0000.08,0000.11,22.9,00.1,0634.7,30.8
2020-04-14T02:16:00Z,00000388,01000608,0000.94,0000.49,0000.04,0000.10,-000.11,0000.05,0000.04,-000.03,0000.02,22.9,00.1,0634.7,30.8
2020-04-14T02:17:00Z,00000388,01000608,-000.59,0000.07,-000.05,0000.20,-000.18,0000.05,0000.07,0000.15,0000.08,22.9,00.1,0634.7,30.8
2020-04-14T02:18:00Z,00000388,01000608,0001.22,0000.35,0000.12,-000.01,-000.08,-000.02,0000.02,-000.10,0000.02,22.9,00.1,0634.6,30.8
2020-04-14T02:19:00Z,00000388,01000608,0000.43,0000.06,0000.18,0000.55,-000.04,0000.26,0000.02,0000.02,-000.06,22.9,00.1,0634.7,30.8
2020-04-14T02:20:00Z,00000388,01000608,0000.28,0000.02,0000.64,0000.85,-000.19,0000.01,-000.02,0000.13,0000.03,22.9,00.1,0634.7,30.8
2020-04-14T02:21:00Z,00000388,01000608,-001.43,0000.41,0000.50,0001.09,-000.24,-000.41,0000.17,0000.09,0000.22,22.9,00.1,0634.7,30.8
2020-04-14T02:22:00Z,00000388,01000608,0000.10,0000.08,0000.29,0000.21,-000.08,-000.25,-000.07,-000.09,-000.22,22.9,00.1,0634.7,30.8
2020-04-14T02:23:00Z,00000388,01000608,0001.28,0000.70,-000.12,0000.40,-000.10,-000.04,0000.01,-000.04,0000.02,22.9,00.1,0634.7,30.8
2020-04-14T02:24:00Z,00000388,01000608,0001.19,-000.00,0000.16,-000.13,-000.06,-000.08,0000.13,0000.09,-000.05,22.9,00.1,0634.7,30.8
2020-04-14T02:25:00Z,00000388,01000608,0000.48,-000.62,0000.56,-000.09,0000.06,-000.40,-000.05,-000.06,0000.06,22.9,00.1,0634.7,30.7
2020-04-14T02:26:00Z,00000388,01000608,0000.12,0000.30,0000.32,0000.21,0000.32,-000.45,-000.07,-000.00,-000.04,22.8,00.1,0634.7,30.8
2020-04-14T02:27:00Z,00000388,01000608,-000.32,0000.11,0000.32,0000.52,0000.15,0000.13,0000.07,0000.19,0000.03,22.9,00.1,0634.7,30.7
2020-04-14T02:28:00Z,00000388,01000608,-001.33,0000.34,0000.65,0000.21,-000.14,0000.14,-000.01,-000.23,-000.07,22.8,00.1,0634.7,30.7
2020-04-14T02:29:00Z,00000388,01000608,0000.02,0000.00,-000.14,0000.08,-000.50,0000.00,0000.02,0000.04,0000.08,22.8,00.1,0634.7,30.8
2020-04-14T02:30:00Z,00000388,01000608,-001.29,-000.04,0000.35,0000.48,0000.04,-000.24,0000.01,-000.03,-000.05,22.8,00.1,0634.8,30.8
2020-04-14T02:31:00Z,00000388,01000608,-000.33,-000.38,0000.54,0000.02,0000.19,-000.26,0000.14,0000.04,0000.13,22.8,00.1,0634.8,30.8
2020-04-14T02:32:00Z,00000388,01000608,-000.35,-000.32,0000.08,0000.32,-000.08,-000.13,-000.06,0000.13,-000.02,22.8,00.1,0634.7,30.7
2020-04-14T02:33:00Z,00000388,01000608,-000.06,-000.66,0000.17,0000.14,-000.25,-000.37,-000.01,-000.13,0000.06,22.8,00.1,0634.7,30.8
2020-04-14T02:34:00Z,00000388,01000608,0001.75,0000.16,0000.21,0000.01,0000.08,-000.14,-000.04,0000.12,-000.13,22.8,00.1,0634.8,30.8
2020-04-14T02:35:00Z,00000388,01000608,0001.04,0000.04,-000.02,0000.23,-000.08,-000.10,0000.04,-000.02,0000.08,22.8,00.1,0634.8,30.8
2020-04-14T02:36:00Z,00000388,01000608,0000.14,-000.57,0000.23,0000.96,0000.27,-000.30,0000.01,0000.00,-000.04,22.8,00.1,0634.8,30.8
2020-04-14T02:37:00Z,00000388,01000608,-000.56,-000.25,-000.33,0001.07,-000.46,-000.68,0000.10,0000.23,0000.05,22.8,00.1,0634.8,30.8
2020-04-14T02:38:00Z,00000388,01000608,-000.15,0000.22,0000.53,-000.35,-000.06,0000.11,-000.00,-000.18,0000.06,22.8,00.1,0634.8,30.8
2020-04-14T02:39:00Z,00000388,01000608,-000.33,-000.08,0000.02,0000.37,-000.06,-000.64,0000.07,0000.12,-000.04,22.8,00.1,0634.7,30.7
2020-04-14T02:40:00Z,00000388,01000608,0000.42,0000.18,-000.23,0000.51,0000.08,-000.45,-000.00,0000.02,0000.06,22.8,00.2,0634.8,30.7
2020-04-14T02:41:00Z,00000388,01000608,-001.01,-000.01,0000.36,-000.09,-000.04,-000.03,0000.07,0000.05,0000.02,22.8,00.1,0634.8,30.7
2020-04-14T02:42:00Z,00000388,01000608,0000.76,0000.02,0000.21,-000.11,0000.06,0000.29,0000.02,-000.04,0000.03,22.8,00.1,0634.8,30.7
2020-04-14T02:43:00Z,00000388,01000608,-000.95,0000.16,0001.00,0000.49,-000.04,-000.18,-000.10,0000.07,0000.04,22.7,00.1,0634.7,30.7
2020-04-14T02:44:00Z,00000388,01000608,0001.85,-000.29,0000.64,0000.82,-000.17,0000.09,0000.13,0000.03,-000.10,22.7,00.1,0634.8,30.7
2020-04-14T02:45:00Z,00000388,01000608,0000.74,0000.09,0000.16,0000.48,-000.19,0000.12,-000.06,0000.00,0000.10,22.7,00.2,0634.8,30.7
2020-04-14T02:46:00Z,00000388,01000608,0000.33,-000.45,0000.04,0000.59,0000.23,-000.22,-000.04,0000.01,-000.06,22.7,00.1,0634.7,30.7
2020-04-14T02:47:00Z,00000388,01000608,-000.72,-000.51,0000.76,0000.72,-000.18,-000.04,0000.07,0000.02,0000.10,22.7,00.1,0634.7,30.7
2020-04-14T02:48:00Z,00000388,01000608,-000.17,-000.37,0000.20,0000.00,-000.23,-000.03,0000.10,0000.09,-000.01,22.7,00.1,0634.8,30.7
2020-04-14T02:49:00Z,00000388,01000608,0000.38,0000.20,0000.16,0000.93,0000.34,-000.07,-000.09,-000.04,-000.07,22.7,00.1,0634.8,30.7
2020-04-14T02:50:00Z,00000388,01000608,0000.17,0000.23,0000.05,0000.99,0000.21,-000.42,0000.07,-000.02,0000.03,22.7,00.1,0634.8,30.7
2020-04-14T02:51:00Z,00000388,01000608,-001.01,0000.50,-000.20,0000.22,0000.10,0000.54,0000.07,-000.02,0000.10,22.7,00.1,0634.8,30.7
2020-04-14T02:52:00Z,00000388,01000608,-000.07,0000.38,0000.14,0001.55,-000.28,-000.01,-000.18,-000.10,-000.18,22.7,00.1,0634.8,30.7
2020-04-14T02:53:00Z,00000388,01000608,-001.64,-000.02,0000.26,0000.26,-000.33,0000.07,-000.00,0000.07,0000.07,22.7,00.1,0634.8,30.7
2020-04-14T02:54:00Z,00000388,01000608,0000.13,-000.31,0000.52,0000.41,-000.28,-000.02,0000.10,0000.05,0000.06,22.7,00.1,0634.8,30.7
2020-04-14T02:55:00Z,00000388,01000608,0000.75,-000.12,-000.48,0000.65,-000.04,-000.22,-000.12,-000.13,-000.06,22.7,00.1,0634.8,30.7
2020-04-14T02:56:00Z,00000388,01000608,0000.59,-000.21,0000.29,0000.51,0000.02,-000.06,0000.10,0000.05,-000.05,22.7,00.1,0634.9,30.7
2020-04-14T02:57:00Z,00000388,41000608,,,,,,,,,,22.7,00.2,0634.9,30.7
2020-04-14T02:58:00Z,00000388,61000608,,,,,,,,,,22.8,00.0,0633.9,30.7
2020-04-14T02:59:00Z,00000388,21000608,,,,,,,,,,22.9,00.0,0633.9,30.8
2020-04-14T03:00:00Z,00000388,21000608,,,,,,,,,,22.9,00.0,0633.9,30.7
2020-04-14T03:01:00Z,00000388,21000608,,,,,,,,,,22.9,00.0,0633.9,30.8
2020-04-14T03:02:00Z,00000388,21000608,,,,,,,,,,22.9,00.0,0634.0,30.7
2020-04-14T03:03:00Z,00000388,61000608,,,,,,,,,,23.0,00.0,0634.0,30.7
2020-04-14T03:04:00Z,00000388,41000608,0000.90,0000.28,-000.13,0000.41,0000.35,-000.03,-000.18,-000.02,0000.16,22.8,00.0,0635.0,30.7
2020-04-14T03:05:00Z,00000388,01000608,-000.98,0001.31,0000.07,0000.03,0000.41,0000.00,0000.02,0000.04,-000.08,22.8,00.0,0635.0,30.8
2020-04-14T03:06:00Z,00000388,01000608,0000.54,0000.64,0000.04,-000.17,0000.63,0000.40,0000.01,0000.01,-000.08,22.8,00.1,0635.1,30.8
2020-04-14T03:07:00Z,00000388,01000608,0000.33,0001.17,-000.42,0000.82,0000.65,-000.14,0000.11,0000.02,0000.11,22.8,00.0,0635.1,30.7
2020-04-14T03:08:00Z,00000388,01000608,-001.07,0000.85,0000.30,0000.11,0000.11,0000.11,-000.02,-000.01,-000.16,22.8,00.1,0635.1,30.7
2020-04-14T03:09:00Z,00000388,01000608,0000.70,0001.31,-000.12,-000.41,0000.03,-000.38,-000.12,-000.07,0000.06,22.8,00.0,0635.1,30.8
2020-04-14T03:10:00Z,00000388,01000608,0001.21,0000.44,0000.33,0000.10,0000.58,0000.58,0000.00,0000.05,0000.04,22.8,00.0,0635.1,30.8